Wind_Speed
48 50 51 49 47 45 45 48 50 51 52 53 54 55 55 55 54 50 48 46 47 53 54 52 50 49 48 45 43 39 34 34 33 31 29 29 31 32 32 32 31 31 32 34 36 38 40 41 42 43 44 45 44 42 40 38 37 37 37 36 34 35 35 34 33 33 33 34 35 37 38 39 39 39 39 40 40 40 41 41 40 39 37 36 35 35
48 52 51 45 44 45 48 50 51 51 53 54 55 56 56 56 54 51 50 48 48 54 54 52 51 49 49 48 45 41 35 30 32 34 32 27 26 27 28 28 28 28 27 27 29 33 39 42 43 45 46 46 45 43 40 38 37 37 37 35 35 36 36 35 35 35 35 36 38 39 40 41 40 40 40 40 41 40 40 39 38 37 36 36 36 36
51 54 48 43 44 47 49 50 50 52 53 54 55 56 56 55 54 53 52 50 51 54 53 52 52 49 49 49 46 40 34 29 29 32 33 28 24 24 26 28 28 29 29 27 27 30 36 40 43 45 46 46 45 43 41 40 39 38 37 37 37 38 37 36 37 37 37 39 41 41 42 42 42 42 41 42 42 41 39 38 38 37 36 37 37 38
54 53 47 45 47 48 49 49 51 52 52 53 53 55 55 53 54 55 54 53 53 53 53 52 51 49 50 50 47 40 33 30 30 29 31 31 28 26 26 27 29 31 32 32 31 30 33 37 40 44 45 46 45 44 43 42 42 41 39 39 39 40 39 39 39 40 41 42 43 43 44 44 43 42 42 42 42 40 39 39 39 39 39 39 39 39
55 53 49 48 49 50 51 51 51 51 51 52 52 54 54 53 54 55 55 55 54 53 53 52 50 48 48 49 46 39 32 31 31 30 30 29 28 28 26 23 24 28 31 33 32 30 31 33 36 40 43 45 45 45 45 45 44 43 41 39 40 40 41 41 42 43 43 44 44 44 44 44 43 43 42 41 40 39 39 40 40 40 40 40 39 39
55 52 50 50 50 51 52 52 51 49 50 52 52 52 52 52 53 53 54 55 54 54 52 53 51 45 43 47 46 40 35 33 33 31 29 27 26 25 24 22 20 23 27 30 32 31 31 33 35 37 40 43 45 45 45 45 44 43 42 41 41 41 42 43 44 45 45 44 44 44 44 45 44 44 42 40 39 39 40 40 40 40 39 39 38 39
55 52 50 51 52 52 52 52 48 45 49 53 53 51 50 52 52 52 53 54 54 54 53 53 54 49 43 44 47 44 40 37 36 32 29 29 27 22 22 24 26 27 27 29 31 32 33 34 36 38 40 41 43 44 45 44 43 42 42 43 43 43 43 44 45 45 45 45 44 44 44 45 45 44 42 41 41 41 41 41 40 39 39 39 39 40
54 52 51 51 52 53 53 50 44 43 49 53 51 50 50 50 51 52 53 54 54 53 53 54 56 56 49 44 46 47 45 43 41 36 32 31 31 26 24 27 32 35 35 32 31 32 34 35 36 38 40 41 42 43 44 44 44 44 43 43 43 44 44 44 44 45 45 45 45 46 46 46 46 45 44 44 44 43 43 43 42 42 42 41 41 42
56 55 54 53 54 54 52 49 47 47 50 51 51 52 53 52 52 53 54 55 55 55 55 55 56 56 52 47 47 49 50 49 47 44 41 38 36 35 36 37 38 40 42 41 37 36 36 37 38 38 39 42 43 43 44 46 46 45 44 44 43 42 43 44 44 44 44 44 44 45 46 46 46 46 46 45 45 45 45 45 45 45 45 44 44 43
57 57 56 57 57 54 51 51 51 52 52 52 53 54 55 55 55 55 56 56 58 58 57 56 55 53 51 48 47 50 51 49 47 49 51 50 47 47 50 51 48 45 45 46 47 46 43 39 39 40 42 43 44 45 45 47 48 47 46 45 44 43 43 44 44 44 43 43 43 44 44 45 46 46 46 46 46 46 46 47 47 47 46 46 46 45
56 56 57 57 56 54 53 53 53 54 54 54 54 55 56 57 57 58 59 58 61 61 56 54 53 51 50 49 47 49 49 48 48 51 55 58 59 58 58 58 58 57 52 51 52 54 54 49 42 41 43 45 46 47 47 48 48 48 47 47 46 46 46 46 46 46 46 45 45 44 44 45 46 46 46 46 46 46 47 47 48 48 47 47 47 46
54 55 55 54 54 53 53 53 54 54 55 55 54 55 56 57 59 61 62 62 64 60 53 51 52 49 50 51 48 49 50 50 52 54 57 60 63 64 63 62 63 66 64 60 57 55 55 55 51 45 42 43 46 48 49 50 50 49 49 49 49 49 48 49 50 49 48 47 46 45 45 46 46 46 46 45 45 45 46 46 47 47 48 48 47 46
52 52 52 52 51 51 52 53 53 53 53 52 52 53 54 57 60 63 63 63 62 57 51 52 54 53 53 52 51 51 52 53 55 59 61 63 65 66 67 67 67 69 70 68 65 60 55 53 53 51 47 43 44 47 47 49 50 50 50 50 51 51 51 51 52 51 49 48 47 46 46 46 46 45 44 44 44 45 46 47 47 47 47 47 46 45
52 50 49 50 48 48 50 51 51 52 52 52 52 51 52 55 59 60 60 60 58 54 53 56 59 59 57 54 53 53 54 57 60 64 67 68 69 69 69 70 69 70 70 69 67 59 50 50 51 52 53 51 48 48 48 48 50 50 50 51 52 54 54 53 53 51 50 48 47 47 47 47 47 45 44 44 44 44 45 46 47 47 47 47 46 45
53 50 48 50 50 48 49 50 50 51 52 53 52 52 54 54 56 56 56 56 57 56 57 60 63 63 60 57 57 58 60 63 66 69 72 73 74 73 73 72 71 71 71 70 68 58 52 58 57 51 52 56 55 53 51 51 51 50 50 51 53 55 56 56 55 53 52 50 49 49 49 49 48 47 46 45 45 44 44 45 46 47 48 47 47 47
56 53 50 53 54 51 52 53 53 54 54 54 54 55 56 54 53 55 55 55 56 58 61 63 66 66 64 63 64 65 66 68 69 71 73 76 77 76 76 74 72 73 73 71 70 66 63 66 66 58 52 53 57 58 56 54 54 54 54 53 54 56 58 58 58 56 56 55 54 52 52 51 50 50 49 48 47 46 46 47 48 49 50 50 50 50
57 55 52 55 57 56 58 59 58 58 58 58 59 59 58 57 57 59 61 60 59 61 64 65 67 69 68 69 69 68 70 71 72 73 75 77 78 76 75 75 73 72 74 73 70 70 67 64 64 61 54 50 54 58 60 59 57 57 57 57 56 57 59 60 60 60 59 59 58 56 55 54 54 53 53 52 50 49 49 50 51 51 52 52 51 51
58 57 55 56 59 59 60 60 61 61 62 62 62 61 61 62 63 63 62 61 61 64 67 69 70 71 72 74 72 70 71 73 74 76 76 76 75 74 72 72 72 70 71 72 70 68 67 64 62 59 55 53 54 57 60 62 62 61 60 59 58 57 58 60 62 62 62 61 60 58 57 57 57 56 56 55 55 54 53 52 53 53 53 53 52 52
61 60 60 60 61 62 60 61 63 65 65 64 62 61 61 62 64 63 62 62 64 67 71 74 77 78 78 77 75 73 73 73 74 75 74 73 71 70 67 65 66 66 66 66 66 65 63 61 60 60 60 58 55 55 58 61 62 63 63 62 60 59 59 60 61 62 63 64 64 62 59 58 59 59 59 59 59 58 57 56 55 55 54 54 53 53
63 62 63 65 66 66 66 67 70 69 67 64 62 62 62 62 64 65 67 68 70 72 74 75 78 79 78 75 73 73 73 71 71 70 69 69 67 65 62 61 61 62 63 63 61 60 61 61 60 62 65 64 59 53 54 58 59 59 62 64 63 62 62 62 63 63 65 67 68 67 64 62 61 61 62 62 63 63 61 59 58 57 56 55 54 53
68 68 70 71 71 72 72 71 72 70 67 66 65 66 66 68 69 71 72 72 72 73 74 75 77 77 74 71 71 73 72 69 66 64 63 62 61 61 60 60 61 61 61 63 62 59 61 65 64 63 64 66 65 58 56 62 65 63 64 66 66 64 62 63 63 65 68 70 70 69 69 68 66 65 65 65 65 65 64 62 60 58 56 56 56 55
71 72 73 74 75 76 75 73 72 73 72 72 73 74 74 75 74 74 75 76 75 76 76 77 79 77 68 64 68 71 68 64 61 61 62 60 57 58 58 59 61 62 62 64 65 63 65 69 70 69 68 68 70 67 65 69 72 68 64 63 64 64 62 61 63 65 68 69 68 68 68 69 69 69 68 67 66 65 64 63 61 59 58 58 58 57
68 68 71 75 78 78 76 75 77 78 79 79 79 79 78 77 76 75 77 76 74 73 72 72 76 75 66 60 64 65 62 60 61 62 63 63 59 58 58 58 60 62 63 65 67 68 70 71 72 73 72 72 72 71 71 71 70 66 62 59 60 61 61 62 65 66 66 66 65 65 64 65 68 70 70 69 67 65 63 61 60 60 60 61 61 61
68 69 72 75 77 79 78 77 78 81 81 81 80 77 74 72 71 72 73 72 71 72 71 73 78 78 72 65 62 58 54 54 55 58 63 65 65 67 69 69 67 65 64 64 65 68 69 70 71 72 72 73 73 72 71 69 65 61 58 57 58 59 60 61 64 66 67 66 64 63 62 62 65 70 72 72 70 67 64 62 61 61 62 63 63 63
69 71 72 74 77 78 78 77 76 77 78 78 76 74 73 71 69 70 71 72 76 77 76 79 85 83 78 74 70 65 62 60 59 64 71 71 68 69 73 74 72 70 68 66 66 67 67 67 66 67 68 69 70 69 68 66 62 57 54 54 56 59 60 61 63 65 66 66 64 63 61 60 63 69 72 74 73 71 68 66 64 64 65 65 65 65
71 72 72 74 76 78 78 77 75 75 76 77 76 75 75 73 72 72 72 74 77 79 78 82 86 84 80 80 79 76 74 74 75 79 84 82 77 75 76 76 75 75 76 77 77 77 78 75 71 70 71 70 70 70 68 65 63 59 57 57 58 60 62 63 65 67 68 67 66 65 63 62 63 66 70 73 74 75 73 70 67 67 68 68 68 67
67 68 67 68 70 72 72 71 70 70 73 74 75 76 75 75 75 74 74 75 77 78 79 80 80 80 78 76 75 73 70 72 76 80 84 84 83 83 82 83 84 85 86 88 88 89 88 85 82 81 82 83 82 81 78 75 71 68 66 66 65 66 65 64 65 67 69 70 69 68 67 67 67 67 68 70 73 75 75 73 71 70 71 72 71 68
66 68 67 68 69 69 68 69 68 68 70 71 71 71 71 71 71 71 73 76 75 74 75 74 72 74 74 71 71 71 69 70 73 75 77 78 79 81 83 85 87 88 89 89 90 90 89 87 85 84 87 90 90 89 89 86 83 81 80 79 78 77 74 71 69 68 69 71 72 72 71 72 73 73 72 72 73 74 75 74 73 72 72 73 72 69
72 73 73 73 74 73 72 73 73 72 72 72 70 70 70 69 70 71 75 76 73 72 74 74 73 74 73 72 74 74 74 74 74 74 76 77 79 81 82 83 84 85 85 85 85 86 86 86 86 85 87 89 90 90 88 86 84 84 84 85 85 85 83 82 80 78 78 78 79 79 78 77 77 77 76 75 74 73 73 74 74 74 73 72 70 67
75 76 76 75 76 76 74 74 74 74 74 73 72 71 70 71 74 75 77 76 74 76 78 77 76 76 74 74 74 73 72 72 72 73 74 75 74 74 75 77 79 81 82 83 83 84 84 84 85 84 84 85 87 88 87 85 83 81 81 82 82 83 85 86 85 85 85 84 84 85 84 83 82 81 79 77 75 74 75 75 76 76 75 74 71 68
74 76 76 75 75 76 74 72 71 69 69 71 72 71 70 70 72 73 74 74 75 76 77 76 76 76 75 75 73 72 72 72 72 73 75 76 76 76 77 78 79 79 79 79 80 82 83 84 84 84 85 85 86 86 87 87 86 83 80 79 78 79 80 81 82 83 83 83 84 84 84 83 82 82 81 79 76 74 75 77 78 78 77 76 74 71
72 73 73 70 71 72 68 64 60 56 58 60 61 64 69 69 69 69 71 71 72 74 75 74 73 72 73 74 74 75 75 75 75 75 75 76 77 77 76 75 73 72 72 74 77 80 82 83 83 85 86 87 88 87 87 87 88 87 83 77 75 75 77 77 78 79 79 80 80 80 80 80 79 79 80 80 78 76 77 79 79 79 78 77 77 77
69 69 68 67 70 71 65 61 60 61 66 68 64 65 71 71 69 68 66 64 64 67 68 68 70 74 77 79 80 81 81 81 82 82 81 80 80 80 78 77 76 77 78 80 82 82 81 80 81 81 81 81 82 83 83 83 83 84 83 79 75 75 75 76 77 78 78 78 79 79 78 78 77 77 78 78 78 77 78 79 80 80 80 81 82 84
68 68 69 69 74 75 71 70 73 78 82 82 77 75 77 76 75 74 72 70 69 69 71 73 78 83 85 86 86 85 86 86 87 89 89 89 88 88 88 87 87 87 88 89 88 86 84 83 81 79 79 79 80 81 82 82 82 82 83 82 81 79 78 77 78 78 78 78 78 79 78 79 78 78 78 78 79 79 80 81 82 82 82 82 83 83
69 69 70 71 75 77 75 74 79 85 86 83 79 78 78 78 79 79 79 80 80 81 83 86 89 89 88 87 87 87 87 88 88 90 91 91 92 92 92 92 92 91 91 91 90 89 89 88 87 85 84 84 84 84 83 82 81 81 82 83 84 83 83 83 82 82 81 80 79 78 78 78 78 78 78 78 78 79 79 80 80 80 80 79 79 78
71 71 72 74 76 78 78 78 82 85 84 81 80 80 80 81 82 82 83 84 85 86 88 89 90 91 90 90 90 89 89 89 89 89 90 90 90 90 89 89 89 88 87 87 86 86 87 88 90 91 92 93 94 93 90 88 87 85 85 85 85 85 85 85 86 86 87 87 86 84 82 79 78 78 78 78 78 78 78 79 79 79 80 80 80 81
74 74 75 76 77 78 80 81 83 85 84 82 81 81 82 82 83 83 85 86 86 87 88 89 90 90 90 89 89 89 89 88 87 87 88 88 87 87 87 86 85 85 83 82 81 81 82 83 83 84 86 89 91 94 95 96 96 97 96 96 95 93 92 90 90 91 93 93 93 92 90 87 84 82 81 81 81 81 80 81 81 82 84 86 87 87
76 76 76 77 79 79 80 82 84 85 86 84 81 81 82 82 82 83 85 86 85 85 86 87 87 88 88 88 88 87 87 87 86 85 86 87 86 86 87 86 86 85 83 81 79 78 78 79 81 81 82 82 83 86 88 89 91 93 95 97 97 98 99 100 100 101 100 99 97 95 93 91 90 89 89 89 90 89 86 84 85 86 88 88 87 86
77 78 78 79 80 80 80 83 84 84 85 84 81 80 81 81 81 82 83 84 84 83 84 84 83 84 84 84 85 85 85 85 84 83 83 85 86 86 87 86 86 86 85 84 83 80 76 73 73 74 75 76 77 79 81 82 82 83 85 86 86 87 89 93 96 98 98 99 99 97 96 96 96 95 92 90 90 89 86 83 82 83 83 82 81 80
76 77 77 78 79 79 79 81 82 83 82 81 79 78 77 78 78 78 79 81 81 79 79 79 79 79 80 81 83 84 84 85 85 83 83 85 86 87 88 88 88 87 87 87 88 87 85 80 76 73 70 69 69 70 72 74 74 74 75 76 77 78 80 82 85 87 89 91 93 95 96 96 94 89 81 76 74 74 74 74 74 74 75 75 75 76
73 74 75 76 76 76 76 78 79 80 79 77 75 74 73 74 75 76 76 76 75 75 76 77 78 79 80 81 83 84 85 85 86 86 85 85 86 87 88 88 89 89 89 89 90 91 92 93 92 91 88 86 84 82 81 79 77 75 74 75 76 79 81 82 82 82 83 83 85 86 85 84 83 79 74 71 71 72 72 73 73 73 73 72 72 73
71 71 72 72 72 72 73 74 76 77 76 74 72 70 70 71 72 72 72 72 72 73 75 76 78 80 81 82 83 84 84 84 85 85 85 85 85 86 87 87 88 88 89 90 91 93 94 95 96 97 98 99 100 100 99 97 94 91 88 87 86 86 87 86 86 85 84 83 83 83 82 81 80 78 77 76 76 77 77 77 77 75 74 73 72 72
68 69 69 69 69 69 70 71 73 74 72 69 67 66 66 68 69 69 69 70 71 72 74 76 78 80 81 82 82 83 83 83 83 84 85 85 85 85 86 86 87 87 88 89 90 91 93 94 94 95 97 98 100 102 104 106 106 104 102 101 100 98 96 94 93 92 90 89 88 87 87 86 86 85 83 82 82 83 83 82 80 78 77 77 75 74
65 65 65 65 65 66 68 69 69 69 67 65 65 65 65 65 66 67 69 71 72 73 75 77 78 79 80 81 82 82 82 82 83 83 84 84 85 85 86 86 86 87 87 88 89 90 91 92 92 92 93 95 96 99 101 103 106 107 108 108 109 109 107 105 103 101 99 97 96 95 94 93 92 92 90 90 89 89 88 86 82 79 79 80 80 80
61 60 62 63 63 64 67 67 66 65 65 63 63 63 63 64 65 66 69 70 71 72 74 76 77 78 78 79 80 81 81 81 81 82 83 83 84 84 84 85 85 85 86 86 87 88 89 90 90 90 90 91 93 95 97 99 101 102 104 106 108 111 112 112 112 111 109 106 104 103 102 100 98 97 96 94 93 91 90 87 83 81 82 82 80 81
58 57 60 63 63 64 65 62 60 61 61 59 59 60 62 63 64 65 67 69 70 72 74 75 76 76 76 77 78 79 79 79 79 80 81 81 82 82 82 83 83 83 84 84 85 85 86 87 88 88 88 88 89 91 93 95 97 98 99 101 103 105 107 109 111 113 113 113 112 110 108 106 102 100 97 94 92 89 87 86 84 82 80 78 75 75
55 54 58 60 60 62 61 57 56 58 59 58 60 61 62 63 64 65 67 68 70 72 73 73 74 74 74 74 75 75 76 76 76 77 78 78 79 79 79 79 80 80 81 82 82 84 85 86 86 87 87 87 87 88 90 91 93 94 96 97 99 101 102 103 105 107 109 111 112 113 112 108 103 99 96 93 90 87 85 85 84 80 75 73 73 74
53 54 57 58 58 60 61 58 57 60 61 61 63 64 64 65 65 65 66 67 68 69 70 71 72 72 71 72 73 73 74 74 75 76 76 77 77 77 77 77 77 77 77 77 79 80 82 83 84 85 86 86 85 86 88 89 89 91 92 94 96 98 99 99 100 102 103 104 106 108 109 107 104 100 97 94 91 88 85 83 80 76 73 73 76 79
53 56 57 57 58 60 60 58 58 61 62 61 61 62 63 64 65 65 65 66 66 67 68 68 69 69 69 70 71 72 73 73 74 76 77 77 77 77 76 76 75 75 74 75 76 78 79 80 82 83 84 84 84 84 85 86 87 87 89 91 92 94 95 96 97 99 100 101 102 103 105 105 104 103 101 99 96 92 87 82 78 77 77 77 78 81
53 56 54 56 59 60 58 56 57 61 63 62 61 62 64 64 65 65 66 66 66 66 66 66 65 65 66 68 70 71 73 74 75 77 78 78 78 77 77 77 76 76 75 75 77 78 79 81 82 83 83 82 82 83 83 83 84 84 86 88 89 91 92 93 94 95 97 99 100 102 104 105 105 104 105 104 101 95 92 89 86 85 84 82 81 82
53 55 54 56 60 60 57 57 58 61 64 64 63 63 64 64 64 64 65 64 64 65 66 66 65 65 66 68 70 72 74 76 77 78 78 78 77 77 78 78 78 78 78 79 81 82 82 81 81 81 81 80 80 80 80 81 81 81 82 85 87 89 89 90 91 92 93 94 97 99 102 105 107 107 107 107 104 100 98 97 97 95 92 87 85 84
Wind_Direction
276 276 277 280 284 285 281 276 275 276 277 279 279 280 281 282 283 287 289 289 288 285 282 283 284 283 286 288 289 291 291 291 295 296 292 290 290 290 290 291 290 287 284 281 277 274 273 272 272 272 272 274 275 276 276 275 274 275 275 276 275 273 271 270 269 268 266 264 264 265 266 267 269 270 272 274 276 276 276 275 274 273 272 271 270 267
277 277 280 284 285 281 277 275 276 277 277 277 278 279 280 281 284 286 286 286 286 283 284 287 286 285 286 287 288 291 290 292 296 296 292 290 293 297 298 296 292 289 286 283 279 274 270 269 269 269 270 272 274 275 275 274 274 274 276 276 274 272 271 270 269 267 266 266 266 266 266 268 270 272 274 275 276 276 274 274 273 271 270 269 267 265
277 277 281 284 280 277 277 278 278 277 276 277 277 279 280 282 284 284 283 283 282 282 284 287 287 285 286 287 288 289 290 293 293 290 291 295 299 300 298 295 291 289 289 286 282 277 273 271 269 269 270 272 274 275 275 275 274 273 274 274 272 271 271 271 271 270 270 269 268 269 269 270 271 272 273 274 274 274 273 272 271 269 268 267 265 263
276 278 281 280 278 279 279 278 277 276 276 277 277 278 280 281 282 282 282 281 281 282 283 285 285 283 284 286 286 288 291 290 287 285 290 299 303 302 296 293 290 289 290 288 286 281 277 276 274 272 272 273 274 274 274 274 274 274 274 273 273 273 273 272 271 270 269 269 269 270 271 271 272 273 274 274 274 273 271 270 268 267 266 265 264 263
275 277 279 279 280 280 278 276 275 274 275 277 277 278 279 280 279 279 281 282 282 282 282 284 282 280 283 283 282 287 291 285 281 281 287 295 299 299 296 293 292 291 290 290 290 286 280 278 277 275 274 273 273 272 271 272 274 276 276 274 274 273 272 271 269 268 268 268 269 270 271 272 273 274 274 275 273 271 268 266 265 264 264 264 265 267
273 275 278 279 279 279 277 275 274 273 275 277 276 275 276 276 277 278 280 281 282 282 283 283 281 277 278 280 282 288 291 285 280 280 286 289 289 291 292 295 297 295 293 293 292 290 285 281 278 276 274 273 272 272 272 272 273 274 274 274 273 272 271 269 269 269 269 269 270 270 270 271 271 272 273 273 271 268 266 264 264 264 265 267 269 272
274 275 277 277 276 276 275 275 274 274 275 276 275 274 274 275 276 277 278 279 280 282 282 282 282 277 271 275 284 289 288 282 277 281 289 289 285 282 283 291 297 297 297 297 296 293 288 284 280 277 275 274 273 273 273 273 272 271 270 271 272 272 271 270 270 270 270 270 270 269 268 268 269 271 272 270 267 265 264 264 265 266 268 269 272 274
277 275 274 274 273 273 273 274 274 272 272 274 275 274 274 274 275 276 276 277 278 279 280 279 281 281 275 274 283 287 284 281 282 289 293 289 287 284 280 286 294 296 296 296 297 297 293 287 282 278 276 275 274 273 273 272 270 270 269 269 270 271 271 271 270 268 268 268 268 269 269 269 269 269 269 267 266 264 264 265 266 268 269 271 274 275
276 274 274 272 271 270 271 272 270 269 269 272 273 273 273 274 274 275 275 276 277 277 277 276 279 283 281 278 282 284 281 284 291 297 297 293 291 291 291 292 293 293 293 293 293 295 294 290 286 283 279 276 274 273 272 271 270 270 270 270 270 269 269 269 269 268 267 267 267 268 268 269 269 268 267 266 265 264 264 265 266 267 269 272 273 274
273 273 273 272 271 270 269 268 267 267 268 269 271 271 273 273 274 275 275 275 276 275 275 276 279 284 282 277 277 277 278 284 291 297 299 299 298 299 300 300 298 294 291 292 292 293 293 289 284 283 282 278 276 274 273 272 272 272 272 272 272 271 269 268 268 268 268 268 268 268 268 268 267 267 266 265 265 265 265 266 266 267 268 269 271 273
271 271 271 271 271 270 268 267 266 267 268 268 269 270 272 273 274 274 274 274 274 273 273 277 280 284 281 275 273 273 276 282 288 294 298 299 300 301 302 302 300 296 292 291 291 292 295 293 286 280 279 279 276 274 274 273 274 274 273 272 272 271 271 270 269 269 269 269 269 268 267 266 265 265 265 265 265 265 265 265 266 266 267 268 271 272
269 269 269 269 268 267 267 268 268 268 268 269 270 271 272 272 272 272 271 272 272 272 274 277 279 279 275 273 273 274 276 282 288 292 294 295 297 299 299 299 298 296 294 292 289 287 290 292 292 285 279 277 276 274 274 275 276 276 274 273 271 269 269 269 269 270 270 270 270 269 267 264 263 263 263 264 264 264 264 264 264 264 265 267 269 269
267 267 268 267 267 267 268 269 269 269 270 270 270 270 270 270 270 270 270 271 272 273 274 275 276 271 266 266 270 272 277 283 287 289 290 291 293 294 295 296 295 295 295 294 293 290 287 285 287 287 282 276 274 274 273 273 275 275 273 272 270 269 268 267 268 268 269 269 269 269 267 265 264 263 264 264 264 264 264 263 263 263 264 264 264 263
267 267 269 270 269 267 268 270 270 271 271 270 269 269 269 269 269 269 270 272 272 273 273 272 271 268 264 265 269 273 278 282 283 285 287 289 289 290 291 291 292 292 293 295 296 296 290 283 281 280 280 277 272 270 269 268 269 270 271 271 270 270 269 268 268 268 269 268 267 267 266 265 265 264 265 265 266 266 265 265 264 263 262 261 261 260
272 268 268 271 270 267 268 271 272 271 271 270 270 270 270 270 272 274 274 273 272 271 269 268 268 267 268 271 274 277 279 280 282 285 287 288 289 289 289 289 289 290 291 292 293 292 288 287 286 278 273 273 272 269 265 263 264 265 267 268 270 271 271 270 270 269 269 268 266 264 263 263 263 263 263 264 265 266 266 265 264 263 262 261 261 260
277 274 272 273 273 272 272 273 273 272 271 270 270 270 271 272 275 276 275 273 272 270 267 266 267 268 270 273 275 277 279 281 284 286 289 290 289 289 288 288 289 289 289 288 287 287 285 287 289 285 274 268 268 270 268 264 262 262 263 263 265 268 269 270 270 269 269 268 266 264 262 261 260 261 262 263 264 264 264 263 262 261 262 262 262 262
276 276 276 277 277 276 275 276 276 276 275 273 272 272 275 276 275 275 274 273 272 269 267 266 268 270 272 273 274 277 279 283 285 287 288 288 287 287 287 287 287 287 286 286 285 285 285 285 286 287 282 271 266 266 268 268 265 262 261 261 261 263 265 267 267 267 266 266 266 267 266 264 262 261 262 263 264 264 264 264 262 262 262 263 263 262
274 274 273 274 276 276 275 276 276 276 276 276 275 276 277 276 275 275 275 274 273 272 271 270 269 270 271 273 276 277 279 282 284 285 285 285 285 285 285 285 285 283 282 282 282 282 283 284 284 285 284 280 275 268 266 268 267 265 263 261 261 261 263 265 266 266 267 266 266 266 267 268 267 266 265 265 266 266 267 266 263 262 262 262 262 262
276 275 272 271 273 273 273 274 275 275 276 277 278 278 276 275 274 273 273 274 274 276 276 276 275 273 272 274 277 279 279 280 280 281 283 284 284 284 283 281 280 278 277 277 277 278 279 279 281 282 281 281 279 273 269 269 270 269 266 263 261 260 261 263 265 267 268 267 266 265 266 267 267 268 268 268 268 268 269 267 265 263 263 262 262 262
276 275 273 270 270 270 270 271 273 274 275 275 275 274 273 272 272 272 272 273 275 277 278 278 277 275 274 275 277 279 280 279 279 278 278 278 278 278 277 276 275 276 276 275 275 276 277 277 277 279 280 279 277 271 266 269 271 270 270 269 266 263 261 262 263 265 265 264 264 264 265 265 266 266 267 268 268 268 268 267 265 264 264 264 264 264
276 275 274 271 269 268 269 270 271 272 272 271 270 271 272 272 273 274 274 274 276 277 278 278 278 279 279 279 279 280 282 282 281 278 276 274 272 270 271 273 274 275 275 274 273 272 274 275 275 275 275 276 277 271 263 267 272 273 273 273 271 267 264 262 261 261 261 261 262 262 262 263 264 265 265 266 266 267 266 265 264 265 265 265 265 265
277 276 276 274 271 270 271 271 271 270 270 270 270 271 272 273 275 277 277 278 279 280 281 281 281 281 282 281 280 280 282 283 281 278 277 274 268 265 266 269 270 270 269 270 270 270 271 273 273 273 272 272 274 273 269 270 274 276 274 274 273 270 266 262 260 258 258 259 259 260 260 261 263 264 264 263 263 262 262 262 262 262 263 264 265 266
276 274 275 275 274 273 272 271 271 271 271 271 271 273 274 276 277 279 280 281 282 280 279 279 276 276 278 280 280 279 278 276 275 274 273 271 267 264 263 264 266 267 268 270 272 272 272 272 273 273 274 274 274 275 275 274 276 277 276 275 273 270 268 266 264 262 262 262 262 262 262 262 264 264 264 263 261 259 258 258 259 260 261 263 264 265
275 274 275 276 275 274 272 271 270 271 272 274 275 277 279 279 278 278 278 278 276 273 273 272 271 273 276 277 275 273 269 265 264 266 266 265 264 264 265 265 265 265 268 271 274 276 275 275 276 276 276 276 276 277 276 275 274 274 274 273 270 268 266 266 267 268 269 268 267 265 263 262 261 262 263 263 261 258 257 256 256 258 260 261 263 264
274 274 275 275 275 275 274 273 272 272 274 277 278 278 277 277 276 274 273 273 271 271 272 272 271 274 277 276 273 270 266 262 260 262 264 263 261 261 263 264 264 265 266 269 273 276 277 277 277 277 276 276 277 277 276 272 269 269 269 268 267 266 264 263 264 266 268 269 268 265 263 261 260 259 260 261 261 259 257 256 256 257 259 260 262 263
274 274 274 274 275 274 274 273 273 273 273 274 274 274 274 275 275 274 273 271 271 273 273 272 273 276 277 277 276 275 272 268 265 264 265 265 263 261 261 262 264 265 267 269 271 273 275 275 275 275 276 275 274 275 274 270 266 264 264 263 263 263 261 258 257 258 261 263 265 265 262 260 259 258 259 260 261 260 259 258 259 260 261 262 263 263
275 274 273 273 273 274 275 276 276 274 273 272 272 273 273 273 274 274 273 272 273 275 274 273 275 277 276 276 276 276 273 270 268 268 268 268 267 266 265 265 266 267 268 270 271 272 273 273 272 272 273 274 274 273 272 271 268 265 264 264 264 263 262 259 257 257 259 260 261 263 263 261 260 259 259 260 261 261 261 261 262 262 263 263 263 264
271 271 271 271 272 273 275 276 275 274 273 273 273 272 272 272 273 272 272 274 276 275 273 274 275 276 276 277 275 273 271 270 269 269 269 269 269 270 270 270 270 269 270 270 270 271 271 271 270 268 268 270 272 273 273 272 271 269 267 267 267 267 265 263 261 260 261 262 263 263 264 264 263 262 261 261 261 261 261 262 262 262 261 260 260 260
271 271 272 273 273 273 274 274 274 274 274 273 272 272 271 271 270 271 272 273 273 272 273 275 276 275 275 274 273 272 272 272 272 271 271 271 272 272 272 272 271 271 271 271 271 271 270 270 270 268 267 267 269 270 272 272 271 270 270 270 270 269 269 268 266 264 263 264 266 266 266 266 265 265 264 264 263 263 262 262 261 260 258 257 256 255
273 273 274 275 274 274 275 275 275 275 274 273 271 269 269 270 270 271 271 270 270 270 273 275 275 275 275 273 273 274 273 273 273 273 273 273 272 271 271 271 271 271 272 273 273 272 272 271 270 269 267 266 265 267 269 270 270 269 269 270 270 270 270 270 270 269 268 268 268 269 269 270 269 268 267 267 266 266 265 263 261 258 257 256 255 255
273 274 275 275 276 275 276 277 277 276 274 272 269 267 267 269 269 269 269 270 271 271 271 272 273 274 274 274 275 275 275 275 274 273 272 272 271 271 271 270 270 271 272 272 272 272 271 270 269 268 267 266 265 265 266 267 269 269 268 268 267 267 268 268 268 268 269 270 270 270 270 271 271 270 270 269 268 266 263 261 260 258 258 258 258 259
273 274 275 276 276 276 277 278 276 272 268 266 266 270 272 273 274 275 274 273 272 271 270 270 271 272 273 275 277 277 277 276 275 273 271 270 270 270 268 267 267 267 269 271 273 273 271 269 268 267 267 268 267 267 266 265 265 267 268 267 265 263 264 264 263 263 264 265 266 267 267 268 268 267 268 268 268 265 262 260 259 259 259 259 260 262
272 273 273 273 273 272 272 271 268 264 262 261 264 271 274 274 275 276 274 269 266 267 267 268 269 272 274 275 275 276 276 275 275 273 271 270 270 269 268 267 266 267 268 271 273 273 271 270 269 269 268 268 267 267 266 265 264 264 264 264 263 261 260 259 259 259 258 259 260 260 261 261 261 261 262 262 262 262 261 260 259 259 260 260 261 263
272 271 272 271 271 271 270 269 267 266 266 267 269 272 273 273 272 271 268 266 265 265 265 268 271 273 274 274 274 274 274 274 274 274 273 273 273 272 272 272 272 272 272 273 274 272 269 268 268 268 268 268 267 267 267 267 266 265 264 263 261 260 258 257 256 256 256 256 256 256 256 256 256 256 256 256 256 257 257 258 259 259 260 260 262 263
271 271 271 271 271 272 272 270 269 268 270 272 273 273 273 273 273 272 270 269 268 268 269 271 273 275 275 275 275 275 275 275 275 275 275 275 275 274 274 274 275 275 274 274 274 272 269 267 266 265 266 266 267 267 266 266 265 265 264 264 262 260 259 258 257 257 257 257 256 255 255 254 255 255 255 255 255 256 257 258 259 260 261 262 263 265
270 270 270 270 270 271 272 271 270 271 273 274 274 274 275 274 274 274 274 273 273 273 273 274 275 276 277 278 278 278 277 277 277 277 278 278 278 277 277 276 276 276 276 275 274 273 271 269 267 265 265 265 265 265 265 265 264 264 264 263 263 261 260 259 259 260 260 261 260 257 256 255 256 257 258 258 258 258 259 260 261 262 263 264 266 269
270 270 270 270 270 271 271 271 272 273 273 274 274 276 276 276 276 276 276 276 277 277 277 277 278 279 279 280 279 279 278 278 278 278 278 279 279 279 279 279 278 278 278 278 277 275 273 272 270 268 267 266 266 266 266 265 265 265 264 264 263 262 261 260 261 262 263 264 264 261 258 257 257 259 261 263 263 263 263 263 264 265 266 268 269 270
269 269 269 270 270 270 271 271 272 273 274 274 275 275 275 276 276 277 277 277 277 278 278 278 279 279 279 279 279 279 279 279 279 279 279 279 279 279 279 279 279 279 279 278 278 277 275 273 271 270 269 269 268 268 268 267 266 265 265 264 263 262 262 262 263 264 264 263 263 262 261 259 259 260 262 264 266 267 267 267 268 268 268 269 268 267
268 268 268 269 269 270 270 271 272 273 274 275 275 276 276 277 277 277 277 277 278 278 279 279 279 279 279 279 279 279 279 278 278 278 278 278 278 278 278 278 278 278 277 276 275 275 274 273 272 270 269 268 267 267 266 265 264 263 263 262 262 263 263 263 263 263 263 261 260 260 261 261 263 264 265 265 264 264 265 266 266 266 265 264 263 263
267 268 268 269 269 270 271 271 272 273 274 275 277 277 277 278 278 278 278 279 280 280 280 279 279 278 277 277 277 277 277 277 277 276 276 276 276 276 276 276 276 276 275 274 273 272 271 271 270 269 267 266 265 264 263 262 262 262 262 262 262 263 263 262 261 261 261 261 260 260 261 262 263 264 263 262 261 260 263 265 266 263 262 261 262 262
268 269 270 270 270 271 272 272 273 273 274 276 277 277 278 278 277 277 278 279 280 279 278 278 277 276 276 276 276 276 276 276 277 277 276 276 275 275 275 275 275 274 273 272 271 270 270 269 268 268 267 267 266 266 264 263 262 262 262 262 261 261 261 260 260 260 260 260 259 259 259 260 260 260 260 259 260 261 265 269 269 266 262 262 264 264
271 270 270 271 272 272 273 273 273 274 276 277 277 277 277 277 276 277 278 278 277 276 276 276 276 276 276 276 276 277 277 277 277 278 278 277 276 276 276 275 275 274 274 273 272 271 270 269 269 268 268 268 268 268 267 267 266 264 264 263 263 262 261 261 261 261 261 261 260 259 259 259 259 260 261 262 263 265 268 272 272 267 261 261 263 263
271 271 271 272 273 273 273 272 273 275 277 277 277 277 277 277 278 278 277 276 276 276 276 276 276 276 277 277 278 278 278 278 278 278 278 278 278 277 277 276 276 275 274 274 273 273 272 271 270 269 269 268 268 268 267 268 267 267 266 266 266 265 264 263 263 263 263 263 263 262 262 261 262 262 263 264 266 268 270 273 273 267 260 258 258 257
271 272 273 273 272 272 271 271 273 275 277 277 277 277 277 277 277 277 276 276 276 276 276 276 276 276 277 278 278 278 279 279 279 279 279 279 278 278 278 278 278 277 276 276 275 274 273 272 271 271 270 269 269 268 268 267 267 267 267 267 267 266 266 265 264 264 264 264 264 265 265 265 264 264 265 266 268 270 271 273 273 267 261 257 256 255
272 273 273 272 271 271 271 272 275 276 277 277 278 278 277 276 276 277 277 277 276 276 275 276 276 277 278 279 279 280 280 280 280 280 280 280 280 279 279 279 279 279 278 278 277 276 275 274 273 272 271 270 270 270 269 268 268 267 267 267 266 266 266 265 264 264 264 263 264 265 266 267 267 267 268 268 269 270 271 272 270 264 260 257 256 256
272 273 273 273 273 272 273 275 278 278 278 278 278 278 277 277 277 276 276 276 276 276 277 277 278 279 280 280 281 281 281 282 282 282 281 281 282 281 282 281 281 281 281 280 280 279 279 278 276 275 274 272 271 271 271 270 269 268 267 266 266 265 265 264 263 263 263 263 263 264 265 266 267 267 268 267 267 267 267 266 263 259 256 255 255 257
273 273 273 273 274 275 276 277 279 279 279 279 279 277 277 277 277 277 277 277 277 278 278 279 280 280 281 281 282 282 282 283 283 283 283 283 283 283 284 284 283 283 283 282 282 281 280 280 279 277 276 275 274 273 272 272 271 270 269 268 267 266 265 264 263 262 262 261 262 262 263 264 264 264 263 262 261 260 259 257 255 253 252 254 257 261
274 274 273 275 276 277 278 278 278 278 278 278 277 277 277 276 276 277 277 278 278 279 279 280 280 281 282 283 283 284 284 284 285 285 286 286 286 286 287 287 286 286 285 284 283 283 282 281 280 279 278 277 276 275 274 273 273 272 271 270 269 267 266 265 263 263 262 261 260 260 261 262 261 260 259 257 256 255 252 249 247 247 250 255 260 263
278 277 278 280 278 276 277 278 279 278 277 276 276 278 278 277 277 276 277 278 278 278 279 280 281 282 283 284 284 285 286 286 288 289 289 290 291 291 291 291 290 289 288 287 286 286 285 284 283 282 281 279 278 277 276 275 274 274 273 272 271 270 269 267 265 263 262 261 260 259 258 258 259 259 258 256 255 253 248 244 245 249 254 257 259 262
282 281 282 283 281 279 280 280 280 280 279 277 276 277 278 278 278 277 277 277 278 278 278 279 280 281 282 283 284 285 286 288 289 290 291 292 293 294 294 293 293 292 292 291 290 289 288 288 286 285 284 282 281 280 278 277 276 275 275 274 273 272 271 269 267 265 263 262 260 259 258 257 256 257 257 255 253 249 245 244 249 255 258 258 257 258
283 283 284 283 283 282 282 281 280 281 281 280 280 279 278 278 279 279 279 279 278 278 278 278 278 279 280 282 284 286 287 288 289 291 292 293 293 294 294 294 294 294 294 293 293 292 291 289 288 287 286 284 283 281 279 278 277 276 275 274 273 272 271 270 268 267 265 263 262 260 259 257 256 256 256 254 252 249 246 248 254 259 260 260 258 256
Height
5803 5799 5797 5800 5804 5805 5804 5800 5798 5798 5797 5794 5792 5790 5790 5788 5788 5793 5795 5795 5793 5784 5779 5782 5782 5779 5781 5783 5786 5790 5792 5790 5789 5791 5790 5789 5788 5786 5786 5786 5785 5784 5784 5784 5783 5782 5780 5778 5777 5776 5774 5773 5774 5774 5775 5775 5776 5775 5775 5776 5778 5778 5777 5777 5777 5777 5776 5776 5776 5775 5775 5775 5775 5775 5776 5776 5776 5776 5776 5776 5776 5777 5777 5777 5777 5777
5798 5793 5794 5800 5801 5798 5795 5793 5793 5793 5792 5790 5788 5786 5785 5784 5785 5789 5789 5789 5788 5778 5773 5776 5775 5773 5776 5777 5781 5784 5786 5787 5786 5783 5783 5785 5785 5784 5783 5782 5781 5780 5779 5779 5778 5777 5775 5773 5771 5770 5769 5769 5769 5770 5770 5771 5771 5771 5771 5772 5773 5773 5773 5773 5773 5773 5772 5772 5771 5771 5771 5771 5771 5771 5772 5772 5772 5771 5771 5771 5772 5772 5772 5772 5772 5772
5792 5788 5793 5797 5793 5790 5789 5789 5788 5787 5786 5784 5784 5782 5780 5781 5781 5781 5783 5783 5782 5775 5771 5772 5767 5766 5770 5771 5774 5780 5782 5783 5783 5779 5777 5780 5782 5782 5780 5779 5777 5775 5775 5775 5774 5773 5770 5768 5767 5765 5764 5764 5764 5765 5765 5766 5766 5766 5767 5768 5768 5768 5768 5769 5769 5769 5769 5768 5767 5767 5767 5767 5767 5767 5767 5767 5766 5766 5767 5767 5767 5767 5767 5767 5767 5767
5785 5785 5790 5790 5786 5785 5784 5783 5782 5780 5780 5780 5779 5778 5776 5778 5777 5774 5774 5775 5775 5772 5769 5769 5763 5759 5763 5765 5767 5774 5779 5779 5778 5776 5775 5775 5777 5778 5777 5775 5774 5772 5771 5770 5770 5769 5766 5764 5763 5761 5761 5760 5760 5761 5761 5760 5760 5761 5762 5763 5763 5763 5763 5764 5764 5764 5764 5763 5763 5763 5763 5763 5762 5763 5762 5762 5762 5762 5762 5762 5761 5762 5761 5761 5762 5762
5780 5782 5784 5783 5781 5780 5778 5776 5775 5774 5775 5776 5775 5773 5773 5774 5772 5768 5768 5767 5768 5768 5766 5766 5760 5755 5758 5758 5760 5769 5774 5773 5773 5773 5774 5774 5773 5773 5772 5772 5771 5770 5768 5766 5765 5764 5762 5761 5759 5758 5756 5756 5756 5755 5755 5755 5755 5756 5757 5758 5757 5758 5758 5758 5759 5759 5759 5758 5758 5759 5758 5758 5758 5758 5757 5757 5757 5757 5756 5756 5755 5756 5756 5756 5757 5757
5777 5778 5779 5778 5776 5774 5771 5770 5770 5769 5769 5771 5769 5768 5768 5768 5766 5765 5764 5762 5761 5762 5763 5762 5757 5752 5753 5753 5754 5762 5767 5766 5766 5768 5770 5770 5770 5769 5767 5767 5767 5767 5765 5763 5761 5760 5758 5756 5754 5753 5752 5750 5750 5750 5749 5750 5751 5751 5751 5752 5752 5752 5752 5752 5752 5752 5753 5753 5753 5753 5753 5753 5753 5752 5753 5753 5752 5751 5750 5750 5750 5751 5752 5752 5753 5753
5772 5775 5774 5772 5770 5767 5765 5765 5766 5765 5763 5763 5763 5762 5763 5762 5761 5761 5760 5758 5757 5756 5756 5756 5753 5749 5749 5750 5752 5755 5758 5758 5758 5762 5764 5764 5764 5765 5764 5762 5761 5761 5760 5759 5757 5756 5754 5752 5750 5748 5747 5746 5745 5744 5744 5744 5745 5745 5745 5746 5746 5746 5746 5746 5746 5747 5747 5747 5747 5747 5748 5748 5748 5748 5748 5747 5746 5746 5745 5745 5746 5746 5747 5747 5748 5748
5767 5769 5768 5766 5764 5761 5760 5761 5762 5759 5755 5756 5757 5756 5756 5756 5756 5756 5755 5753 5752 5752 5751 5749 5748 5745 5745 5748 5750 5748 5747 5747 5749 5755 5758 5758 5757 5759 5760 5759 5756 5753 5753 5754 5753 5752 5750 5748 5747 5745 5742 5742 5741 5739 5739 5738 5738 5738 5739 5740 5740 5740 5741 5741 5740 5740 5741 5741 5741 5741 5741 5742 5743 5743 5743 5741 5741 5741 5741 5741 5741 5742 5742 5742 5742 5742
5760 5759 5760 5759 5757 5755 5756 5757 5756 5752 5749 5750 5751 5749 5749 5749 5749 5749 5749 5748 5746 5746 5745 5743 5744 5744 5744 5746 5746 5743 5740 5740 5742 5745 5748 5750 5751 5752 5753 5753 5753 5749 5745 5746 5747 5747 5746 5745 5742 5741 5739 5736 5735 5734 5733 5732 5732 5732 5733 5733 5734 5735 5735 5735 5735 5735 5735 5735 5735 5735 5735 5736 5736 5736 5736 5736 5736 5736 5736 5736 5736 5736 5736 5736 5736 5736
5752 5751 5752 5750 5749 5750 5751 5750 5748 5746 5745 5745 5745 5743 5743 5742 5742 5742 5742 5741 5740 5739 5738 5738 5740 5742 5742 5743 5743 5739 5736 5738 5739 5738 5737 5738 5741 5743 5743 5742 5742 5743 5741 5739 5738 5737 5739 5740 5739 5736 5734 5732 5730 5729 5728 5727 5726 5727 5728 5727 5727 5728 5728 5729 5729 5729 5729 5728 5729 5729 5729 5729 5729 5729 5730 5730 5730 5730 5730 5730 5730 5730 5730 5730 5730 5730
5745 5744 5744 5743 5742 5743 5743 5742 5741 5741 5740 5739 5739 5738 5737 5736 5736 5734 5733 5734 5731 5730 5734 5735 5737 5739 5736 5735 5736 5735 5734 5736 5736 5735 5733 5730 5731 5733 5734 5733 5731 5731 5735 5736 5732 5729 5727 5729 5732 5732 5729 5727 5726 5725 5723 5722 5722 5722 5722 5722 5722 5721 5721 5722 5722 5722 5722 5722 5722 5722 5722 5722 5722 5722 5723 5723 5724 5724 5724 5724 5724 5724 5724 5724 5724 5724
5738 5736 5736 5736 5736 5735 5735 5735 5735 5735 5734 5734 5733 5733 5731 5730 5729 5726 5725 5725 5722 5724 5731 5731 5731 5733 5730 5727 5729 5730 5730 5732 5732 5732 5730 5727 5726 5725 5725 5726 5723 5720 5722 5725 5727 5727 5724 5720 5721 5723 5724 5721 5720 5720 5720 5718 5718 5718 5718 5717 5716 5715 5715 5714 5714 5715 5715 5716 5716 5716 5716 5715 5715 5715 5716 5716 5717 5717 5717 5717 5717 5717 5717 5717 5717 5717
5731 5730 5729 5729 5730 5731 5729 5729 5729 5729 5729 5728 5727 5726 5724 5723 5721 5718 5717 5717 5716 5720 5726 5724 5722 5722 5721 5721 5724 5725 5726 5728 5728 5726 5725 5725 5723 5722 5720 5718 5716 5712 5710 5710 5712 5715 5719 5718 5714 5712 5714 5715 5714 5714 5714 5713 5713 5712 5712 5711 5710 5709 5708 5708 5707 5707 5708 5709 5710 5710 5710 5709 5709 5709 5710 5710 5710 5710 5710 5710 5710 5711 5711 5710 5710 5710
5723 5724 5725 5723 5725 5726 5723 5722 5723 5723 5723 5721 5721 5720 5717 5716 5713 5709 5711 5711 5712 5716 5717 5714 5712 5709 5712 5718 5720 5723 5725 5724 5723 5720 5719 5719 5718 5718 5716 5712 5709 5707 5704 5702 5700 5700 5702 5708 5711 5707 5703 5704 5706 5706 5705 5705 5706 5706 5705 5705 5704 5702 5702 5701 5701 5701 5702 5702 5703 5703 5703 5703 5704 5704 5704 5704 5704 5704 5704 5704 5705 5704 5704 5703 5703 5703
5714 5717 5720 5717 5717 5719 5718 5717 5717 5716 5716 5714 5715 5713 5710 5711 5707 5703 5705 5705 5705 5707 5705 5704 5702 5702 5708 5714 5715 5718 5719 5717 5716 5714 5713 5711 5710 5709 5708 5705 5703 5701 5699 5697 5695 5694 5691 5691 5698 5703 5701 5696 5694 5695 5697 5697 5697 5698 5698 5698 5697 5696 5695 5695 5695 5695 5695 5695 5695 5695 5696 5696 5697 5697 5697 5697 5697 5697 5698 5698 5698 5697 5697 5697 5696 5695
5707 5709 5713 5709 5709 5712 5712 5711 5709 5708 5708 5708 5708 5706 5703 5706 5704 5698 5697 5697 5697 5695 5694 5695 5693 5696 5705 5708 5710 5711 5710 5710 5709 5708 5707 5704 5701 5700 5697 5696 5696 5693 5691 5690 5689 5688 5687 5683 5683 5688 5693 5692 5687 5684 5686 5688 5690 5690 5690 5690 5690 5688 5688 5688 5688 5688 5687 5687 5687 5687 5687 5688 5689 5689 5689 5689 5689 5690 5690 5690 5690 5690 5689 5689 5689 5688
5700 5703 5706 5703 5701 5704 5703 5702 5701 5700 5699 5699 5699 5699 5698 5698 5696 5691 5686 5688 5689 5682 5683 5689 5686 5689 5696 5699 5705 5707 5704 5704 5702 5700 5700 5696 5693 5692 5689 5688 5688 5686 5683 5682 5681 5679 5678 5678 5676 5675 5679 5683 5684 5681 5679 5680 5681 5682 5682 5682 5682 5682 5680 5679 5680 5679 5678 5678 5678 5678 5679 5679 5680 5680 5680 5681 5681 5681 5682 5682 5682 5681 5681 5681 5681 5681
5693 5694 5700 5699 5694 5695 5696 5694 5692 5692 5690 5689 5689 5691 5691 5688 5687 5685 5679 5678 5678 5670 5671 5679 5680 5683 5687 5688 5697 5703 5701 5700 5696 5692 5690 5688 5686 5685 5683 5681 5679 5679 5676 5674 5673 5671 5669 5669 5670 5670 5669 5671 5674 5676 5675 5673 5672 5673 5674 5674 5674 5674 5673 5671 5671 5671 5671 5671 5671 5670 5671 5670 5670 5671 5671 5671 5672 5672 5673 5674 5673 5672 5672 5673 5672 5672
5685 5683 5690 5695 5689 5686 5689 5688 5684 5684 5683 5680 5681 5683 5683 5679 5678 5678 5672 5668 5667 5661 5659 5664 5667 5672 5678 5683 5690 5693 5693 5693 5688 5684 5681 5679 5678 5676 5674 5673 5669 5668 5668 5665 5664 5664 5663 5662 5663 5664 5664 5663 5663 5663 5665 5666 5665 5664 5664 5666 5666 5665 5664 5663 5662 5662 5661 5661 5661 5662 5664 5664 5663 5662 5662 5661 5662 5663 5664 5664 5663 5663 5663 5663 5663 5664
5677 5671 5675 5686 5684 5677 5680 5682 5679 5678 5677 5674 5673 5673 5673 5672 5669 5667 5663 5660 5658 5653 5650 5651 5650 5655 5667 5680 5684 5681 5680 5680 5678 5675 5673 5671 5670 5666 5663 5662 5659 5658 5656 5655 5656 5656 5655 5656 5657 5656 5655 5655 5656 5656 5655 5655 5657 5657 5655 5655 5657 5657 5656 5655 5653 5652 5650 5648 5650 5652 5655 5655 5655 5654 5654 5654 5653 5654 5655 5654 5654 5654 5654 5653 5654 5655
5668 5661 5660 5671 5674 5668 5671 5676 5674 5672 5670 5667 5665 5663 5663 5663 5661 5656 5652 5652 5652 5646 5642 5640 5635 5641 5657 5670 5675 5672 5667 5666 5665 5663 5661 5662 5660 5656 5654 5651 5649 5648 5646 5644 5647 5648 5648 5648 5649 5650 5648 5646 5648 5650 5650 5646 5646 5649 5648 5646 5646 5647 5648 5647 5645 5642 5639 5639 5641 5644 5646 5646 5646 5646 5646 5646 5646 5646 5646 5646 5645 5645 5644 5644 5645 5646
5658 5652 5647 5653 5659 5661 5664 5668 5666 5662 5660 5658 5655 5654 5655 5655 5653 5647 5640 5644 5646 5638 5634 5631 5621 5624 5645 5659 5663 5663 5660 5656 5654 5651 5649 5650 5648 5645 5643 5642 5639 5637 5638 5638 5639 5641 5642 5641 5640 5640 5641 5640 5639 5641 5641 5638 5636 5638 5639 5638 5636 5636 5637 5636 5635 5633 5631 5632 5634 5636 5637 5638 5638 5638 5638 5638 5638 5638 5638 5637 5637 5635 5635 5636 5636 5637
5649 5643 5638 5639 5644 5650 5655 5658 5655 5651 5650 5648 5645 5646 5649 5647 5645 5640 5632 5635 5638 5630 5627 5624 5609 5609 5632 5650 5651 5652 5654 5652 5647 5644 5640 5636 5632 5630 5630 5631 5631 5630 5631 5631 5631 5632 5631 5631 5630 5630 5631 5632 5631 5631 5631 5629 5627 5627 5628 5629 5628 5627 5627 5626 5624 5623 5624 5626 5628 5630 5631 5631 5630 5629 5629 5629 5629 5629 5629 5628 5627 5626 5626 5627 5627 5627
5640 5635 5632 5630 5631 5635 5642 5648 5647 5642 5640 5637 5636 5640 5640 5637 5637 5633 5626 5626 5624 5618 5620 5616 5601 5601 5622 5638 5641 5643 5645 5645 5642 5637 5628 5620 5618 5618 5618 5621 5623 5622 5622 5622 5621 5621 5620 5620 5621 5621 5622 5622 5622 5622 5622 5620 5620 5619 5619 5620 5619 5618 5618 5617 5616 5614 5614 5616 5619 5621 5622 5623 5621 5619 5619 5619 5619 5620 5620 5619 5619 5619 5619 5619 5619 5620
5631 5628 5626 5622 5620 5621 5627 5635 5637 5635 5632 5626 5626 5631 5629 5627 5627 5623 5619 5616 5607 5605 5614 5605 5591 5598 5613 5620 5625 5632 5634 5634 5635 5625 5610 5607 5613 5614 5612 5612 5612 5611 5611 5611 5612 5612 5612 5612 5612 5612 5612 5613 5613 5613 5613 5612 5611 5611 5611 5611 5611 5609 5609 5609 5608 5606 5605 5605 5607 5609 5611 5612 5611 5610 5610 5609 5609 5610 5610 5610 5611 5611 5611 5611 5611 5612
5621 5620 5620 5615 5611 5611 5614 5620 5626 5626 5621 5615 5615 5619 5619 5619 5618 5612 5610 5606 5596 5597 5602 5592 5584 5594 5604 5603 5606 5614 5616 5616 5616 5609 5599 5602 5608 5608 5605 5603 5603 5603 5602 5602 5603 5603 5603 5604 5604 5602 5601 5602 5603 5603 5604 5604 5603 5601 5601 5601 5601 5600 5600 5599 5599 5598 5597 5596 5597 5598 5600 5601 5601 5600 5600 5600 5600 5601 5600 5601 5602 5602 5602 5602 5602 5603
5611 5609 5611 5607 5602 5602 5604 5608 5613 5613 5607 5603 5604 5607 5609 5609 5608 5605 5598 5593 5591 5590 5585 5583 5583 5584 5588 5593 5593 5593 5594 5593 5595 5596 5594 5594 5596 5596 5596 5595 5594 5595 5594 5593 5593 5593 5593 5593 5593 5593 5591 5589 5590 5591 5592 5593 5593 5592 5590 5590 5590 5590 5589 5589 5589 5589 5589 5588 5588 5588 5588 5589 5590 5591 5592 5592 5592 5591 5591 5592 5592 5593 5593 5593 5593 5594
5603 5597 5600 5600 5594 5594 5597 5597 5600 5599 5594 5593 5594 5594 5597 5598 5598 5595 5587 5584 5587 5580 5569 5575 5581 5574 5575 5583 5581 5577 5578 5579 5581 5584 5583 5583 5584 5584 5584 5582 5581 5582 5582 5582 5582 5581 5581 5581 5581 5582 5581 5579 5578 5577 5578 5579 5580 5580 5579 5577 5578 5577 5577 5578 5578 5578 5578 5578 5579 5579 5579 5579 5579 5580 5581 5582 5582 5582 5582 5582 5582 5582 5582 5583 5584 5584
5592 5585 5590 5592 5585 5584 5587 5586 5589 5589 5584 5584 5583 5581 5584 5587 5587 5584 5579 5579 5579 5568 5560 5567 5570 5565 5567 5570 5567 5565 5568 5568 5569 5571 5570 5571 5572 5572 5571 5569 5567 5567 5568 5568 5569 5568 5569 5569 5569 5569 5569 5568 5567 5565 5565 5565 5565 5566 5565 5564 5564 5564 5564 5564 5564 5565 5566 5566 5567 5568 5569 5569 5568 5568 5569 5570 5571 5571 5571 5571 5571 5571 5571 5572 5573 5573
5581 5576 5581 5581 5573 5573 5576 5577 5579 5578 5574 5572 5571 5570 5572 5575 5577 5576 5571 5570 5568 5560 5558 5561 5558 5555 5556 5555 5556 5557 5557 5557 5558 5559 5558 5559 5559 5559 5559 5557 5555 5554 5554 5554 5555 5555 5555 5555 5555 5555 5555 5555 5554 5553 5553 5553 5552 5553 5552 5551 5551 5550 5550 5550 5551 5551 5552 5553 5554 5554 5555 5556 5556 5557 5557 5558 5560 5561 5561 5560 5561 5560 5560 5561 5561 5562
5573 5568 5571 5570 5562 5560 5567 5569 5567 5566 5562 5558 5557 5559 5563 5566 5567 5565 5561 5560 5558 5553 5552 5552 5548 5546 5545 5543 5545 5546 5545 5546 5547 5546 5547 5547 5547 5548 5547 5545 5544 5543 5542 5542 5542 5542 5542 5541 5541 5540 5540 5540 5541 5542 5541 5540 5540 5539 5539 5540 5539 5538 5538 5538 5538 5538 5539 5539 5540 5541 5542 5543 5544 5545 5545 5546 5547 5549 5550 5549 5550 5551 5551 5551 5551 5551
5566 5561 5561 5562 5551 5548 5560 5561 5555 5554 5550 5543 5545 5552 5556 5558 5555 5553 5552 5552 5547 5542 5542 5542 5539 5538 5537 5535 5534 5533 5533 5534 5533 5534 5536 5536 5535 5535 5534 5533 5532 5531 5531 5530 5530 5529 5529 5528 5527 5527 5527 5527 5527 5528 5528 5528 5528 5527 5527 5527 5528 5527 5527 5526 5526 5527 5527 5527 5527 5528 5529 5530 5532 5533 5533 5534 5535 5536 5537 5538 5539 5540 5541 5541 5541 5540
5560 5554 5552 5553 5541 5539 5553 5554 5547 5543 5534 5530 5543 5550 5548 5547 5546 5543 5543 5541 5537 5533 5532 5531 5529 5529 5530 5528 5526 5524 5522 5522 5521 5520 5522 5523 5523 5523 5522 5521 5520 5519 5519 5518 5518 5518 5517 5516 5515 5514 5514 5514 5514 5514 5514 5514 5515 5516 5515 5515 5515 5516 5516 5515 5514 5514 5515 5516 5515 5516 5517 5518 5520 5521 5521 5522 5523 5524 5525 5525 5526 5528 5528 5529 5529 5528
5551 5547 5544 5543 5532 5529 5543 5546 5536 5526 5517 5523 5541 5545 5538 5537 5537 5535 5533 5530 5528 5526 5523 5520 5519 5518 5518 5517 5517 5515 5513 5512 5510 5507 5507 5508 5509 5509 5508 5508 5507 5506 5506 5505 5505 5505 5505 5505 5504 5503 5502 5501 5501 5501 5501 5500 5501 5502 5502 5502 5502 5503 5503 5503 5503 5502 5502 5503 5504 5504 5505 5506 5507 5508 5509 5510 5511 5511 5512 5512 5513 5514 5515 5516 5516 5517
5541 5539 5535 5533 5524 5520 5529 5532 5519 5508 5511 5521 5530 5531 5529 5528 5525 5523 5521 5519 5518 5517 5515 5512 5508 5505 5504 5504 5504 5504 5502 5501 5499 5496 5493 5493 5493 5494 5494 5494 5493 5493 5492 5492 5491 5490 5490 5491 5491 5491 5491 5489 5488 5488 5487 5487 5488 5489 5489 5488 5488 5488 5488 5488 5489 5489 5489 5491 5492 5492 5492 5493 5495 5496 5496 5497 5498 5498 5499 5499 5500 5501 5502 5503 5504 5505
5530 5529 5524 5522 5518 5512 5514 5515 5506 5500 5507 5515 5515 5516 5518 5516 5512 5511 5508 5505 5506 5506 5503 5500 5495 5492 5492 5491 5490 5490 5489 5488 5487 5485 5481 5478 5477 5478 5478 5479 5479 5478 5478 5477 5477 5476 5475 5475 5476 5477 5478 5477 5476 5475 5474 5474 5474 5475 5476 5475 5474 5474 5474 5473 5473 5473 5474 5476 5478 5479 5480 5481 5482 5483 5484 5484 5485 5486 5486 5487 5488 5488 5488 5490 5491 5492
5519 5517 5514 5510 5508 5506 5503 5501 5497 5493 5497 5503 5506 5507 5506 5502 5501 5500 5494 5491 5493 5493 5490 5487 5483 5481 5479 5477 5476 5475 5474 5473 5475 5474 5470 5466 5464 5464 5464 5465 5465 5464 5464 5463 5462 5462 5461 5460 5461 5461 5462 5462 5462 5461 5460 5460 5460 5460 5461 5461 5460 5460 5459 5458 5458 5458 5459 5461 5462 5464 5465 5466 5467 5469 5470 5471 5472 5473 5474 5475 5475 5476 5476 5477 5478 5479
5508 5506 5504 5499 5496 5498 5495 5489 5487 5485 5484 5491 5498 5498 5494 5492 5492 5489 5482 5480 5482 5483 5478 5475 5472 5470 5467 5465 5463 5461 5460 5460 5462 5463 5459 5454 5453 5452 5451 5452 5452 5451 5451 5450 5449 5449 5448 5447 5447 5447 5447 5448 5447 5446 5445 5445 5445 5445 5445 5445 5445 5444 5444 5443 5443 5444 5445 5446 5447 5447 5448 5448 5449 5452 5454 5456 5457 5459 5460 5462 5462 5463 5464 5464 5465 5466
5498 5494 5494 5489 5484 5488 5486 5479 5478 5477 5475 5479 5486 5487 5484 5482 5481 5478 5471 5467 5471 5473 5468 5462 5461 5459 5455 5453 5450 5448 5448 5447 5450 5453 5450 5444 5442 5442 5441 5440 5440 5440 5439 5438 5437 5436 5435 5434 5434 5433 5433 5433 5432 5431 5430 5430 5430 5431 5430 5430 5430 5429 5428 5427 5428 5428 5429 5431 5432 5432 5433 5432 5433 5435 5437 5440 5442 5444 5446 5448 5449 5450 5451 5451 5451 5452
5487 5484 5483 5479 5475 5477 5476 5470 5468 5468 5468 5471 5474 5475 5474 5471 5469 5466 5460 5457 5460 5460 5455 5450 5449 5447 5444 5442 5438 5436 5436 5435 5436 5440 5441 5437 5432 5430 5430 5429 5428 5428 5427 5426 5425 5423 5423 5423 5422 5421 5421 5419 5418 5417 5415 5414 5415 5415 5415 5416 5415 5413 5412 5412 5413 5414 5414 5415 5417 5418 5418 5418 5418 5420 5422 5424 5426 5429 5431 5433 5435 5437 5438 5438 5439 5440
5476 5475 5471 5468 5467 5468 5466 5461 5457 5457 5461 5465 5465 5464 5463 5461 5457 5453 5452 5451 5450 5446 5442 5438 5436 5433 5432 5430 5427 5425 5425 5424 5423 5424 5427 5427 5423 5420 5418 5417 5416 5415 5414 5413 5412 5410 5409 5410 5409 5409 5408 5407 5405 5404 5402 5401 5402 5402 5401 5400 5400 5398 5397 5398 5399 5400 5401 5402 5403 5404 5404 5405 5405 5406 5408 5410 5412 5414 5417 5420 5422 5424 5425 5426 5427 5428
5467 5464 5460 5459 5459 5458 5456 5452 5446 5446 5452 5458 5455 5453 5453 5449 5446 5445 5444 5442 5438 5434 5432 5428 5424 5421 5419 5417 5416 5415 5414 5413 5412 5411 5411 5411 5410 5408 5406 5404 5403 5402 5400 5398 5397 5396 5394 5394 5395 5394 5394 5393 5391 5389 5388 5387 5388 5389 5388 5387 5385 5383 5383 5385 5386 5386 5388 5389 5390 5390 5391 5392 5392 5393 5394 5396 5398 5400 5403 5406 5408 5411 5413 5415 5416 5417
5456 5452 5450 5452 5452 5448 5445 5442 5438 5437 5444 5448 5445 5444 5444 5439 5436 5436 5434 5429 5426 5425 5422 5418 5414 5411 5407 5405 5405 5403 5402 5402 5401 5399 5397 5396 5396 5394 5392 5391 5389 5388 5387 5385 5384 5381 5379 5379 5380 5380 5380 5379 5377 5374 5372 5371 5372 5373 5374 5372 5370 5368 5369 5371 5372 5372 5375 5376 5377 5377 5378 5379 5380 5380 5382 5383 5384 5385 5389 5392 5394 5397 5400 5402 5404 5405
5446 5443 5441 5443 5443 5437 5432 5432 5433 5433 5435 5437 5435 5435 5435 5432 5428 5425 5420 5417 5417 5415 5411 5406 5403 5402 5399 5395 5393 5392 5391 5390 5389 5386 5385 5383 5382 5381 5379 5378 5376 5374 5373 5371 5369 5367 5364 5363 5364 5365 5365 5365 5362 5359 5358 5356 5355 5357 5359 5357 5354 5353 5354 5356 5356 5357 5360 5362 5363 5364 5364 5365 5366 5367 5368 5369 5370 5371 5375 5378 5380 5383 5387 5389 5390 5392
5438 5437 5432 5430 5432 5429 5422 5424 5429 5428 5427 5428 5428 5426 5423 5421 5420 5416 5409 5406 5406 5403 5399 5395 5393 5393 5391 5386 5382 5380 5380 5379 5377 5375 5373 5370 5369 5369 5367 5365 5363 5361 5358 5357 5354 5352 5349 5348 5349 5350 5350 5351 5349 5344 5342 5341 5339 5341 5343 5341 5337 5337 5338 5340 5340 5342 5344 5346 5348 5349 5350 5351 5353 5354 5355 5355 5357 5358 5362 5365 5367 5370 5373 5375 5376 5379
5430 5430 5423 5418 5421 5419 5415 5419 5424 5420 5417 5420 5419 5415 5412 5409 5409 5406 5400 5395 5393 5391 5389 5386 5383 5383 5381 5377 5373 5370 5368 5367 5365 5363 5361 5358 5357 5357 5355 5353 5351 5348 5345 5343 5341 5338 5335 5333 5334 5334 5334 5335 5335 5330 5327 5326 5324 5324 5325 5324 5320 5319 5321 5322 5324 5326 5328 5330 5331 5333 5334 5335 5338 5340 5341 5342 5344 5346 5349 5352 5354 5357 5360 5362 5363 5365
5423 5422 5414 5411 5412 5409 5408 5416 5418 5410 5408 5410 5406 5404 5403 5399 5397 5395 5389 5385 5383 5381 5379 5378 5375 5373 5371 5367 5364 5361 5358 5357 5354 5351 5350 5348 5346 5345 5343 5340 5338 5336 5333 5331 5328 5324 5321 5319 5319 5318 5317 5319 5320 5317 5312 5311 5310 5308 5306 5304 5302 5301 5302 5304 5306 5307 5310 5313 5314 5315 5317 5318 5321 5325 5327 5328 5330 5333 5336 5339 5341 5344 5347 5349 5351 5352
5415 5412 5406 5405 5407 5402 5400 5407 5409 5402 5399 5399 5394 5392 5393 5390 5386 5384 5380 5376 5375 5372 5370 5369 5366 5364 5361 5358 5354 5351 5349 5347 5344 5340 5338 5337 5335 5334 5332 5328 5326 5324 5322 5320 5315 5311 5308 5306 5304 5303 5301 5302 5304 5302 5298 5297 5296 5294 5289 5286 5284 5283 5284 5286 5288 5289 5291 5295 5297 5298 5300 5300 5302 5307 5311 5314 5315 5317 5321 5325 5327 5329 5333 5336 5337 5338
5406 5402 5399 5398 5396 5394 5394 5399 5398 5390 5386 5388 5387 5384 5381 5378 5376 5375 5372 5369 5366 5363 5361 5360 5357 5355 5352 5348 5345 5341 5338 5337 5334 5330 5327 5326 5325 5323 5320 5317 5314 5312 5310 5308 5303 5299 5296 5293 5290 5288 5286 5287 5287 5285 5283 5283 5282 5279 5274 5270 5268 5266 5266 5268 5270 5271 5273 5276 5278 5280 5282 5283 5285 5288 5292 5296 5299 5301 5305 5310 5311 5314 5319 5323 5324 5325
5396 5392 5393 5389 5382 5384 5389 5390 5386 5377 5372 5376 5380 5377 5371 5368 5366 5365 5364 5361 5358 5355 5353 5351 5348 5346 5343 5339 5336 5333 5329 5328 5325 5320 5317 5316 5315 5311 5308 5305 5302 5300 5298 5295 5291 5287 5284 5280 5277 5273 5272 5273 5272 5269 5268 5267 5266 5264 5259 5254 5253 5251 5249 5250 5252 5253 5256 5259 5260 5263 5264 5266 5269 5272 5274 5277 5281 5285 5289 5293 5295 5298 5303 5308 5311 5312
5387 5383 5384 5379 5374 5375 5378 5379 5375 5367 5361 5364 5369 5367 5363 5360 5358 5356 5354 5352 5350 5347 5344 5342 5339 5338 5335 5331 5328 5324 5320 5318 5315 5311 5307 5306 5305 5301 5298 5294 5290 5288 5286 5283 5278 5274 5271 5268 5264 5260 5258 5258 5256 5253 5251 5251 5251 5250 5244 5239 5236 5234 5233 5234 5234 5235 5240 5243 5244 5245 5246 5247 5252 5255 5257 5260 5264 5267 5271 5276 5279 5282 5287 5292 5296 5299